Regional Weather Roundup
Issued by NWS

Home | Current Version | Previous Version | Graphics & Text | Print | Product List | Glossary On
Versions: 1 2 3 4 5 6 7 8 9 10 11 12 13 14 15 16 17 18 19 20 21 22 23 24 25 26 27 28 29 30 31 32 33 34 35 36 37 38 39 40 41 42 43 44 45 46 47 48 49 50
000
ASUS43 KLOT 220102
RWRIL

ILLINOIS REGIONAL WEATHER ROUNDUP
NATIONAL WEATHER SERVICE CHICAGO/ROMEOVILLE IL
700 PM CST SAT JAN 21 2017

NOTE: "FAIR" INDICATES FEW OR NO CLOUDS BELOW 12,000 FEET WITH NO
SIGNIFICANT WEATHER AND/OR OBSTRUCTIONS TO VISIBILITY.

* THESE STATIONS ARE NOT UNDER NWS QUALITY CONTROL. THEY ALSO MAY NOT
  REPORT WEATHER SUCH AS PRECIPITATION OR FOG.

ILZ001-002-007-009-015-016-024-220200-
NORTHWEST ILLINOIS

CITY           SKY/WX    TMP DP  RH WIND       PRES   REMARKS
MOLINE         CLOUDY    43  40  89 CALM      29.56R
STERLING*      CLOUDY    43  42  97 W8        29.57R FOG
SAVANNA*       CLOUDY    41  41  99 SW3       29.56R FOG
$$

ILZ003-004-008-010-011-017-018-220200-
NORTH CENTRAL ILLINOIS

CITY           SKY/WX    TMP DP  RH WIND       PRES   REMARKS
ROCKFORD       CLOUDY    44  41  89 CALM      29.57R FOG
FREEPORT*      CLOUDY    42  40  94 SW7       29.57R
ROCHELLE*      FOG       42  42  99 NW7       29.57R VSB 1/2
DE KALB*       FOG       42  41  98 NW8       29.57R VSB 1/4
$$

ILZ005-006-012>014-019>023-220200-
NORTHEAST ILLINOIS

CITY           SKY/WX    TMP DP  RH WIND       PRES   REMARKS
CHICAGO-OHARE  CLEAR     48  42  80 SW3       29.54R
CHICAGO-MIDWAY PTCLDY    48  40  73 SW5       29.55R
AURORA         CLEAR     39  38  96 W3        29.55R FOG
LANSING*       CLEAR     46  46  97 CALM      29.56R
JOLIET*        CLEAR     42  41  97 CALM      29.56R
WAUKEGAN       CLEAR     44  41  89 W3        29.54R
DUPAGE AIRPORT CLEAR     41  38  89 SW5       29.54R
KANKAKEE*      CLEAR     47  44  88 CALM      29.57R
WHEELING       CLEAR     46  40  79 CALM      29.55R
MORRIS*        PTCLDY    46  44  90 CALM      29.54R
ROMEOVILLE*    CLEAR     45  44  96 W5        29.55R
NORTHERLY ISL    N/A     53  41  63 SW3         N/A
$$

LMZ740>746-220200-
SOUTHERN LAKE MICHIGAN

STATION/POSITION SKY/WX   TEMP    WIND        PRES    VSBY  WAVE
                          AIR SEA DIR/SP/G                  HT/PER
                          (F)     (DEG/KT/KT) (MB)    (MI)  (FT/S)
HARRISON CRIB              57     260/  7/  8   N/A
BURNHAM HARBOR             53     270/  3/  6   N/A
CALUMET HARBOR             52     190/  2/  3 1000.1
BURNS HARBOR               54     220/  6/  8 1001.7R
MICHIGAN CITY              54     210/  5/  7   N/A
$$

ILZ025>027-034>036-040-047-049-050-058-095>099-220200-
WEST-CENTRAL ILLINOIS

CITY           SKY/WX    TMP DP  RH WIND       PRES   REMARKS
QUINCY         PTCLDY    48  42  80 NW8       29.55R
GALESBURG*     FOG       35  35 100 N3        29.56R VSB<1/4
MACOMB*        CLEAR     41  40  97 NW5       29.58R FOG
JACKSONVILLE*  PTCLDY    47  41  80 NW3       29.55R
PITTSFIELD*    CLOUDY    51  42  71 NW3       29.56R
$$

ILZ028>032-037-038-041>044-048-051>054-059>061-220200-
CENTRAL ILLINOIS

CITY           SKY/WX    TMP DP  RH WIND       PRES   REMARKS
BLOOMINGTON    PTCLDY    49  42  77 W6        29.57R
DECATUR        MOCLDY    50  48  93 SE6       29.55R
PEORIA         CLEAR     49  43  80 CALM      29.56R
LACON*         CLEAR     47  43  87 W3        29.56R
LINCOLN*       PTCLDY    47  44  90 CALM      29.56R
SPRINGFIELD    PTCLDY    49  43  80 CALM      29.55R
TAYLORVILLE    MOCLDY    52  49  88 CALM      29.55R
$$

ILZ033-039-045-046-055>057-062-063-220200-
EAST-CENTRAL ILLINOIS

CITY           SKY/WX    TMP DP  RH WIND       PRES   REMARKS
CHAMPAIGN      PTCLDY    51  46  83 SW5       29.56R
MATTOON        CLOUDY    54  49  83 SE3       29.55R
$$

ILZ079-100>102-220200-
SOUTHWEST ILLINOIS

CITY           SKY/WX    TMP DP  RH WIND       PRES   REMARKS
ALTON          PTCLDY    54  45  71 CALM      29.54R
BELLEVILLE     CLOUDY    60  54  81 E7        29.53R
CAHOKIA*       CLOUDY    58  45  62 CALM      29.53R
SPARTA*        CLOUDY    60  53  78 S6        29.57R
$$

ILZ064>066-069>071-074>076-080>082-084>086-088>090-092>094-220200-
SOUTH-CENTRAL ILLINOIS

CITY           SKY/WX    TMP DP  RH WIND       PRES   REMARKS
CARBONDALE     CLOUDY    59  53  80 S3        29.57R
CAIRO*         MOCLDY    58  52  81 CALM      29.58R
EFFINGHAM*     CLEAR     59  53  79 SE5       29.58R
MARION         CLOUDY    59  54  82 CALM      29.59R
MT. VERNON     PTCLDY    56  51  84 CALM      29.57R
CENTRALIA*     CLOUDY    60  55  83 S8        29.55S
SALEM*         PTCLDY    62  53  72 S7        29.56R
METROPOLIS*    CLOUDY    59  51  76 CALM      29.59R
$$

ILZ067-068-072-073-078-083-087-091-220200-
SOUTHEAST ILLINOIS

CITY           SKY/WX    TMP DP  RH WIND       PRES   REMARKS
LAWRENCEVILLE  PTCLDY    55  51  86 S9        29.58S
FLORA*         MOCLDY    59  52  78 S7        29.57R
FAIRFIELD*     CLOUDY    58  52  81 CALM      29.56S
HARRISBURG*    CLOUDY    58  52  82 SE3       29.58S
ROBINSON*      CLOUDY    55  50  83 S7        29.58S
CARMI*         CLOUDY    56  51  86 S3        29.58R
$$

ABBREVIATIONS USED IN REMARKS
   TC - TEMPERATURE IN CELSIUS
  WCI - WIND CHILL INDEX
   HX - HEAT INDEX
  VSB - VISIBILITY
$$




USA.gov is the U.S. government's official web portal to all federal, state and local government web resources and services.